TimeHST,TemperatureF,Dew PointF,Humidity,Sea Level PressureIn,VisibilityMPH,Wind Direction,Wind SpeedMPH,Gust SpeedMPH,PrecipitationIn,Events,Conditions,WindDirDegrees,DateUTC
12:54 AM,66.9,53.1,61,30.17,10.0,NE,6.9,-,N/A,,Overcast,50,2013-02-13 10:54:00
1:54 AM,66.9,54.0,63,30.15,10.0,ENE,6.9,-,N/A,,Overcast,60,2013-02-13 11:54:00
2:54 AM,66.9,55.0,66,30.12,10.0,ENE,9.2,-,N/A,,Overcast,60,2013-02-13 12:54:00
3:54 AM,66.9,54.0,63,30.12,10.0,Variable,4.6,-,N/A,,Overcast,0,2013-02-13 13:54:00
4:54 AM,66.9,57.0,70,30.11,10.0,NE,10.4,16.1,0.00,Rain,Light Rain,40,2013-02-13 14:54:00
5:15 AM,68.0,57.2,68,30.09,10.0,NNE,11.5,17.3,0.00,,Overcast,30,2013-02-13 15:15:00
5:31 AM,66.2,55.4,68,30.10,10.0,NE,10.4,20.7,0.00,,Overcast,40,2013-02-13 15:31:00
5:54 AM,68.0,55.9,65,30.11,10.0,NE,8.1,17.3,0.00,,Mostly Cloudy,40,2013-02-13 15:54:00
6:54 AM,68.0,54.0,61,30.12,10.0,NE,8.1,23.0,N/A,,Mostly Cloudy,50,2013-02-13 16:54:00
7:01 AM,68.0,53.6,60,30.11,10.0,NE,10.4,16.1,N/A,,Mostly Cloudy,50,2013-02-13 17:01:00
7:54 AM,69.1,53.1,57,30.14,10.0,NNE,9.2,-,N/A,,Scattered Clouds,30,2013-02-13 17:54:00
8:54 AM,71.1,53.1,53,30.14,10.0,NE,8.1,-,N/A,,Mostly Cloudy,40,2013-02-13 18:54:00
9:54 AM,73.9,53.1,48,30.16,10.0,NE,11.5,18.4,N/A,,Scattered Clouds,50,2013-02-13 19:54:00
10:54 AM,73.0,55.9,55,30.16,10.0,NE,12.7,20.7,N/A,,Mostly Cloudy,50,2013-02-13 20:54:00
11:54 AM,73.0,55.9,55,30.13,10.0,NE,12.7,21.9,N/A,,Scattered Clouds,40,2013-02-13 21:54:00
12:54 PM,73.9,54.0,50,30.10,10.0,NNE,11.5,21.9,N/A,,Scattered Clouds,20,2013-02-13 22:54:00
1:54 PM,73.9,55.9,53,30.07,10.0,NE,11.5,23.0,N/A,,Scattered Clouds,40,2013-02-13 23:54:00
2:54 PM,73.0,54.0,51,30.05,10.0,NE,12.7,23.0,N/A,,Partly Cloudy,40,2013-02-14 00:54:00
3:54 PM,73.0,54.0,51,30.04,10.0,NNE,13.8,23.0,N/A,,Clear,30,2013-02-14 01:54:00
4:54 PM,71.1,54.0,55,30.06,10.0,NE,12.7,23.0,N/A,,Scattered Clouds,50,2013-02-14 02:54:00
5:54 PM,70.0,54.0,57,30.07,10.0,NE,10.4,20.7,N/A,,Partly Cloudy,40,2013-02-14 03:54:00
6:54 PM,66.9,55.0,66,30.08,10.0,NNE,8.1,17.3,N/A,,Clear,30,2013-02-14 04:54:00
7:54 PM,68.0,57.0,68,30.11,10.0,NE,9.2,-,N/A,,Mostly Cloudy,40,2013-02-14 05:54:00
8:54 PM,66.9,55.9,68,30.12,10.0,NE,6.9,-,N/A,,Partly Cloudy,40,2013-02-14 06:54:00
9:54 PM,66.9,55.9,68,30.13,10.0,NNE,6.9,-,N/A,,Mostly Cloudy,30,2013-02-14 07:54:00
10:54 PM,68.0,54.0,61,30.13,10.0,NE,8.1,-,N/A,,Mostly Cloudy,40,2013-02-14 08:54:00
11:54 PM,66.0,53.1,63,30.13,10.0,NE,5.8,-,N/A,,Overcast,50,2013-02-14 09:54:00